Weather History for KDVK - September, 2013

Change the Weather History Date:

Saturday, September 21, 2013

  Actual Average (KLEX) Record (KLEX)
Temperature  
Mean Temperature 61 °F 66 °F  
Max Temperature 69 °F 77 °F 97 °F (1940)
Min Temperature 53 °F 55 °F 40 °F (1918)
Degree Days  
Heating Degree Days 4 2  
Month to date heating degree days 18  
Since 1 July heating degree days 20  
Cooling Degree Days 0 3  
Month to date cooling degree days 121  
Year to date cooling degree days 1138  
Growing Degree Days 11 (Base 50)    
Moisture  
Dew Point 58 °F    
Average Humidity 85    
Maximum Humidity 100    
Minimum Humidity 56    
Precipitation  
Precipitation 0.00 in 0.10 in 4.13 in (1979)
Month to date precipitation 2.03  
Year to date precipitation 33.70  
Snow  
Snow 0.00 in 0.00 in - ()
Month to date snowfall 0.0  
Since 1 July snowfall 0.0  
Since 1 September snowfall 0.0  
Snow Depth -    
Sea Level Pressure  
Sea Level Pressure 29.83 in    
Wind  
Wind Speed 5 mph (NW)    
Max Wind Speed 12 mph    
Max Gust Speed 18 mph    
Visibility 9 miles    
Events Rain    
T = Trace of Precipitation, MM = Missing Value Source: NWS Daily Summary

Daily Weather History Graph

Daily Weather History Graph

Search for Another Location

Airport or City:

Trip Planner

Search our weather history database for the weather conditions in past years. The results will help you decide how hot, cold, wet, or windy it might be!

Date:

Astronomy

Sep. 21, 2013 Rise Set
Actual Time 7:26 AM EDT 7:37 PM EDT
Civil Twilight 7:00 AM EDT 8:03 PM EDT
Nautical Twilight 6:29 AM EDT 8:33 PM EDT
Astronomical Twilight 5:58 AM EDT 9:04 PM EDT
Moon 8:51 PM EDT (9/21) 9:40 AM EDT (9/21)
Length of Visible Light 13h 03m
Length of Day
12h 10m
Waning Gibbous, 94% of the Moon is Illuminated
Sep 21
Waning Gibbous
Sep 26
Last Quarter
Oct 4
New
Oct 11
First Quarter
Oct 18
Full

Hourly Weather History & Observations

Time (EDT) Temp. Dew Point Humidity Pressure Visibility Wind Dir Wind Speed Gust Speed Precip Events Conditions
12:15 AM 68.0 °F 64.4 °F 88% 29.87 in 10.0 mi Calm Calm - N/A Rain Light Rain
12:35 AM 68.0 °F 66.2 °F 94% 29.87 in 10.0 mi SW 4.6 mph - N/A Rain Light Rain
12:55 AM 68.0 °F 66.2 °F 94% 29.87 in 10.0 mi SW 8.1 mph - N/A Rain Light Rain
1:15 AM 68.0 °F 66.2 °F 94% 29.86 in 10.0 mi SSW 3.5 mph - N/A   Drizzle
1:35 AM 68.0 °F 66.2 °F 94% 29.85 in 10.0 mi SSW 3.5 mph - N/A Rain Rain
1:55 AM 68.0 °F 64.4 °F 88% 29.85 in 7.0 mi Calm Calm - N/A Rain Rain
2:15 AM 68.0 °F 66.2 °F 94% 29.85 in 7.0 mi SSW 3.5 mph - N/A Rain Rain
2:35 AM 66.2 °F 64.4 °F 94% 29.84 in 7.0 mi SSW 3.5 mph - N/A Rain Light Rain
2:55 AM 66.2 °F 66.2 °F 100% 29.82 in 5.0 mi SSW 5.8 mph - N/A Rain Rain
3:15 AM 66.2 °F 64.4 °F 94% 29.81 in 7.0 mi SSW 8.1 mph - N/A Rain Rain
3:35 AM 66.2 °F 64.4 °F 94% 29.79 in 4.0 mi SSW 6.9 mph - N/A Rain Rain
3:55 AM 66.2 °F 64.4 °F 94% 29.77 in 5.0 mi South 9.2 mph - N/A Rain Light Rain
4:15 AM 66.2 °F 64.4 °F 94% 29.75 in 5.0 mi South 5.8 mph - N/A Rain Light Rain
4:35 AM 66.2 °F 64.4 °F 94% 29.74 in 7.0 mi South 5.8 mph - N/A Rain Light Rain
4:55 AM 66.2 °F 66.2 °F 100% 29.74 in 7.0 mi SW 6.9 mph - N/A Rain Rain
5:15 AM 64.4 °F 64.4 °F 100% 29.76 in 3.0 mi NNW 9.2 mph 18.4 mph N/A Rain Heavy Rain
5:35 AM 64.4 °F 62.6 °F 94% 29.75 in 3.0 mi NNW 9.2 mph - N/A Rain Heavy Rain
5:55 AM 64.4 °F 62.6 °F 94% 29.75 in 5.0 mi NNW 10.4 mph - N/A Rain Heavy Rain
6:15 AM 64.4 °F 62.6 °F 94% 29.78 in 7.0 mi NW 4.6 mph - N/A Rain Rain
6:35 AM 62.6 °F 62.6 °F 100% 29.78 in 5.0 mi NNW 6.9 mph - N/A Rain Rain
6:55 AM 62.6 °F 62.6 °F 100% 29.78 in 5.0 mi NNW 8.1 mph - N/A Rain Heavy Rain
7:15 AM 62.6 °F 62.6 °F 100% 29.78 in 10.0 mi NNW 4.6 mph - N/A Rain Rain
7:35 AM 62.6 °F 62.6 °F 100% 29.76 in 10.0 mi Calm Calm - N/A Rain Light Rain
7:55 AM 62.6 °F 62.6 °F 100% 29.78 in 10.0 mi NW 3.5 mph - N/A Rain Light Rain
8:15 AM 62.6 °F 62.6 °F 100% 29.79 in 10.0 mi WNW 3.5 mph - N/A Rain Light Rain
8:35 AM 62.6 °F 62.6 °F 100% 29.79 in 7.0 mi Calm Calm - N/A Rain Light Rain
8:55 AM 62.6 °F 62.6 °F 100% 29.80 in 10.0 mi West 4.6 mph - N/A Rain Light Rain
9:15 AM 62.6 °F 62.6 °F 100% 29.82 in 10.0 mi WNW 3.5 mph - N/A   Mostly Cloudy
9:35 AM 64.4 °F 62.6 °F 94% 29.82 in 10.0 mi NW 4.6 mph - N/A   Overcast
9:55 AM 64.4 °F 62.6 °F 94% 29.82 in 10.0 mi Calm Calm - N/A   Overcast
10:15 AM 62.6 °F 60.8 °F 94% 29.83 in 3.0 mi NW 9.2 mph 16.1 mph N/A Rain Heavy Rain
10:35 AM 60.8 °F 60.8 °F 100% 29.84 in 2.0 mi NW 10.4 mph - N/A Rain Rain
10:55 AM 60.8 °F 60.8 °F 100% 29.84 in 5.0 mi NW 6.9 mph - N/A   Light Drizzle
11:15 AM 60.8 °F 60.8 °F 100% 29.84 in 10.0 mi NW 9.2 mph - N/A   Overcast
11:35 AM 59.0 °F 59.0 °F 100% 29.84 in 7.0 mi NW 8.1 mph - N/A   Overcast
11:55 AM 59.0 °F 59.0 °F 100% 29.84 in 10.0 mi NNW 9.2 mph - N/A   Overcast
12:15 PM 60.8 °F 59.0 °F 94% 29.84 in 10.0 mi NNW 9.2 mph - N/A   Overcast
12:35 PM 62.6 °F 59.0 °F 88% 29.84 in 10.0 mi NW 9.2 mph - N/A   Mostly Cloudy
12:55 PM 62.6 °F 59.0 °F 88% 29.85 in 10.0 mi NNW 6.9 mph - N/A   Scattered Clouds
1:15 PM 62.6 °F 57.2 °F 82% 29.85 in 10.0 mi WNW 8.1 mph - N/A   Scattered Clouds
1:35 PM 62.6 °F 55.4 °F 77% 29.85 in 10.0 mi NW 10.4 mph 16.1 mph N/A   Scattered Clouds
1:55 PM 64.4 °F 57.2 °F 77% 29.85 in 10.0 mi NW 9.2 mph - N/A   Scattered Clouds
2:15 PM 64.4 °F 55.4 °F 73% 29.84 in 10.0 mi NNW 6.9 mph - N/A   Mostly Cloudy
2:35 PM 66.2 °F 55.4 °F 68% 29.84 in 10.0 mi NW 6.9 mph - N/A   Mostly Cloudy
2:55 PM 68.0 °F 55.4 °F 64% 29.83 in 10.0 mi North 5.8 mph - N/A   Mostly Cloudy
3:15 PM 66.2 °F 55.4 °F 68% 29.83 in 10.0 mi North 8.1 mph - N/A   Mostly Cloudy
3:35 PM 66.2 °F 55.4 °F 68% 29.84 in 10.0 mi North 9.2 mph - N/A   Overcast
3:55 PM 68.0 °F 55.4 °F 64% 29.84 in 10.0 mi North 9.2 mph - N/A   Mostly Cloudy
4:15 PM 68.0 °F 53.6 °F 60% 29.83 in 10.0 mi North 9.2 mph - N/A   Overcast
4:35 PM 68.0 °F 53.6 °F 60% 29.83 in 10.0 mi NW 9.2 mph - N/A   Scattered Clouds
4:55 PM 69.8 °F 53.6 °F 56% 29.83 in 10.0 mi NNW 11.5 mph - N/A   Mostly Cloudy
5:15 PM 68.0 °F 51.8 °F 56% 29.84 in 10.0 mi North 11.5 mph - N/A   Scattered Clouds
5:35 PM 68.0 °F 51.8 °F 56% 29.83 in 10.0 mi NNW 6.9 mph - N/A   Clear
5:55 PM 68.0 °F 51.8 °F 56% 29.84 in 10.0 mi NNW 4.6 mph - N/A   Clear
6:15 PM 68.0 °F 51.8 °F 56% 29.84 in 10.0 mi NNW 8.1 mph - N/A   Scattered Clouds
6:35 PM 68.0 °F 51.8 °F 56% 29.84 in 10.0 mi North 8.1 mph - N/A   Overcast
6:55 PM 64.4 °F 51.8 °F 64% 29.85 in 10.0 mi NNW 5.8 mph - N/A   Mostly Cloudy
7:15 PM 62.6 °F 51.8 °F 68% 29.85 in 10.0 mi North 4.6 mph - N/A   Clear
7:35 PM 60.8 °F 51.8 °F 72% 29.85 in 10.0 mi North 3.5 mph - N/A   Clear
7:55 PM 60.8 °F 51.8 °F 72% 29.85 in 10.0 mi Calm Calm - N/A   Clear
8:15 PM 60.8 °F 51.8 °F 72% 29.86 in 10.0 mi Calm Calm - N/A   Clear
8:35 PM 59.0 °F 51.8 °F 77% 29.87 in 10.0 mi Calm Calm - N/A   Clear
8:55 PM 57.2 °F 53.6 °F 88% 29.87 in 10.0 mi Calm Calm - N/A   Clear
9:15 PM 55.4 °F 53.6 °F 94% 29.88 in 10.0 mi Calm Calm - N/A   Clear
9:35 PM 55.4 °F 51.8 °F 88% 29.88 in 10.0 mi Calm Calm - N/A   Scattered Clouds
9:55 PM 55.4 °F 51.8 °F 88% 29.88 in 10.0 mi Calm Calm - N/A   Clear
10:15 PM 55.4 °F 51.8 °F 88% 29.88 in 10.0 mi Calm Calm - N/A   Clear
10:35 PM 57.2 °F 51.8 °F 82% 29.88 in 10.0 mi Calm Calm - N/A   Clear
10:55 PM 55.4 °F 51.8 °F 88% 29.89 in 10.0 mi Calm Calm - N/A   Clear
11:15 PM 53.6 °F 51.8 °F 94% 29.89 in 10.0 mi Calm Calm - N/A   Clear
11:35 PM 53.6 °F 50.0 °F 88% 29.89 in 10.0 mi North 3.5 mph - N/A   Clear
11:55 PM 53.6 °F 50.0 °F 88% 29.90 in 10.0 mi NNW 3.5 mph - N/A   Clear